Time,TemperatureF,DewpointF,PressureIn,WindDirection,WindDirectionDegrees,WindSpeedMPH,WindSpeedGustMPH,Humidity,HourlyPrecipIn,Conditions,Clouds,dailyrainin,SoftwareType,DateUTC
2013-03-21 00:00:00,45.9,39.2,29.82,West,270,1.6,1.8,77,0.00,,,0.00,WUHU216HW,2013-03-21 06:00:00,
2013-03-21 00:05:00,46.1,39.6,29.81,West,270,0.4,1.8,78,0.00,,,0.00,WUHU216HW,2013-03-21 06:05:00,
2013-03-21 00:10:00,46.1,39.6,29.81,West,270,0.0,2.2,78,0.00,,,0.00,WUHU216HW,2013-03-21 06:10:00,
2013-03-21 00:15:00,46.1,39.6,29.81,West,270,0.0,2.2,78,0.00,,,0.00,WUHU216HW,2013-03-21 06:15:00,
2013-03-21 00:20:00,45.7,39.2,29.80,West,270,0.0,0.2,78,0.00,,,0.00,WUHU216HW,2013-03-21 06:20:00,
2013-03-21 00:25:00,45.9,39.4,29.80,West,270,1.1,1.3,78,0.00,,,0.00,WUHU216HW,2013-03-21 06:25:00,
2013-03-21 00:30:00,45.9,39.2,29.80,West,270,0.4,1.3,77,0.00,,,0.00,WUHU216HW,2013-03-21 06:30:00,
2013-03-21 00:35:00,46.1,39.3,29.79,West,270,0.0,0.7,77,0.00,,,0.00,WUHU216HW,2013-03-21 06:35:00,
2013-03-21 00:40:00,46.3,39.5,29.79,West,270,0.0,1.1,77,0.00,,,0.00,WUHU216HW,2013-03-21 06:40:00,
2013-03-21 00:45:00,46.4,39.7,29.79,West,270,0.0,1.1,77,0.00,,,0.00,WUHU216HW,2013-03-21 06:45:00,
2013-03-21 00:50:00,46.4,39.7,29.79,West,270,0.0,0.0,77,0.00,,,0.00,WUHU216HW,2013-03-21 06:50:00,
2013-03-21 00:55:00,46.4,39.7,29.79,West,270,0.0,0.0,77,0.00,,,0.00,WUHU216HW,2013-03-21 06:55:00,
2013-03-21 01:00:00,46.4,40.3,29.79,West,270,0.0,0.0,79,0.00,,,0.00,WUHU216HW,2013-03-21 07:00:00,
2013-03-21 01:05:00,46.4,40.3,29.79,West,270,0.0,0.0,79,0.00,,,0.00,WUHU216HW,2013-03-21 07:05:00,
2013-03-21 01:10:00,46.4,40.0,29.79,West,270,0.0,0.0,78,0.00,,,0.00,WUHU216HW,2013-03-21 07:10:00,
2013-03-21 01:15:00,46.4,40.0,29.79,West,270,0.0,0.0,78,0.00,,,0.00,WUHU216HW,2013-03-21 07:15:00,
2013-03-21 01:20:00,46.6,40.1,29.79,West,270,0.0,1.1,78,0.00,,,0.00,WUHU216HW,2013-03-21 07:20:00,
2013-03-21 01:25:00,46.8,40.3,29.78,West,270,0.0,1.1,78,0.00,,,0.00,WUHU216HW,2013-03-21 07:25:00,
2013-03-21 01:30:00,46.6,40.1,29.78,West,270,0.0,0.0,78,0.00,,,0.00,WUHU216HW,2013-03-21 07:30:00,
2013-03-21 01:35:00,46.6,40.1,29.78,West,270,0.0,0.0,78,0.00,,,0.00,WUHU216HW,2013-03-21 07:35:00,
2013-03-21 01:40:00,46.6,40.1,29.77,West,270,0.0,0.0,78,0.00,,,0.00,WUHU216HW,2013-03-21 07:40:00,
2013-03-21 01:45:00,46.4,40.0,29.77,West,270,0.0,0.0,78,0.00,,,0.00,WUHU216HW,2013-03-21 07:45:00,
2013-03-21 01:50:00,46.6,40.1,29.77,West,270,0.0,0.0,78,0.00,,,0.00,WUHU216HW,2013-03-21 07:50:00,
2013-03-21 01:55:00,46.6,40.5,29.77,West,270,0.0,0.0,79,0.00,,,0.00,WUHU216HW,2013-03-21 07:55:00,
2013-03-21 02:00:00,46.8,40.7,29.77,West,270,0.0,0.0,79,0.00,,,0.00,WUHU216HW,2013-03-21 08:00:00,
2013-03-21 02:05:00,47.2,41.3,29.77,West,270,0.9,0.9,80,0.00,,,0.00,WUHU216HW,2013-03-21 08:05:00,
2013-03-21 02:10:00,47.2,41.3,29.77,West,270,0.0,0.9,80,0.00,,,0.00,WUHU216HW,2013-03-21 08:10:00,
2013-03-21 02:15:00,47.3,41.5,29.77,West,270,0.0,0.0,80,0.00,,,0.00,WUHU216HW,2013-03-21 08:15:00,
2013-03-21 02:20:00,47.5,41.7,29.77,West,270,0.0,0.0,80,0.00,,,0.00,WUHU216HW,2013-03-21 08:20:00,
2013-03-21 02:25:00,47.7,41.9,29.76,West,270,0.4,0.4,80,0.00,,,0.00,WUHU216HW,2013-03-21 08:25:00,
2013-03-21 02:30:00,47.9,41.9,29.76,West,270,0.0,0.4,80,0.00,,,0.00,WUHU216HW,2013-03-21 08:30:00,
2013-03-21 02:35:00,48.1,42.1,29.76,West,270,0.0,0.0,80,0.00,,,0.00,WUHU216HW,2013-03-21 08:35:00,
2013-03-21 02:40:00,48.2,41.9,29.75,West,270,0.4,0.4,79,0.00,,,0.00,WUHU216HW,2013-03-21 08:40:00,
2013-03-21 02:45:00,48.8,42.1,29.75,West,270,0.0,0.7,78,0.00,,,0.00,WUHU216HW,2013-03-21 08:45:00,
2013-03-21 02:50:00,49.1,42.2,29.74,West,270,0.0,0.7,77,0.00,,,0.00,WUHU216HW,2013-03-21 08:50:00,
2013-03-21 02:55:00,49.3,42.0,29.74,NNE,23,0.9,0.9,76,0.00,,,0.00,WUHU216HW,2013-03-21 08:55:00,
2013-03-21 03:00:00,49.5,41.9,29.74,NNE,23,0.0,0.9,75,0.00,,,0.00,WUHU216HW,2013-03-21 09:00:00,
2013-03-21 03:05:00,49.5,41.5,29.74,NNE,23,0.0,0.2,74,0.00,,,0.00,WUHU216HW,2013-03-21 09:05:00,
2013-03-21 03:10:00,49.5,41.9,29.73,NNE,23,0.0,0.4,75,0.00,,,0.00,WUHU216HW,2013-03-21 09:10:00,
2013-03-21 03:15:00,49.7,41.7,29.73,NNE,23,0.0,0.4,74,0.00,,,0.00,WUHU216HW,2013-03-21 09:15:00,
2013-03-21 03:20:00,50.0,41.4,29.73,NE,45,0.0,0.9,72,0.00,,,0.00,WUHU216HW,2013-03-21 09:20:00,
2013-03-21 03:25:00,50.2,41.2,29.73,NE,45,0.0,0.9,71,0.00,,,0.00,WUHU216HW,2013-03-21 09:25:00,
2013-03-21 03:30:00,50.2,40.9,29.73,SSE,158,0.4,0.7,70,0.00,,,0.00,WUHU216HW,2013-03-21 09:30:00,
2013-03-21 03:35:00,50.0,41.1,29.73,SSE,158,1.3,1.3,71,0.00,,,0.00,WUHU216HW,2013-03-21 09:35:00,
2013-03-21 03:40:00,50.0,40.7,29.72,South,180,1.1,1.3,70,0.00,,,0.00,WUHU216HW,2013-03-21 09:40:00,
2013-03-21 03:45:00,50.4,40.7,29.72,SE,135,1.6,1.6,69,0.00,,,0.00,WUHU216HW,2013-03-21 09:45:00,
2013-03-21 03:50:00,50.2,40.5,29.72,SSE,158,1.1,1.6,69,0.00,,,0.00,WUHU216HW,2013-03-21 09:50:00,
2013-03-21 03:55:00,50.4,40.7,29.72,South,180,2.2,2.2,69,0.00,,,0.00,WUHU216HW,2013-03-21 09:55:00,
2013-03-21 04:00:00,50.4,40.7,29.72,SE,135,0.0,2.2,69,0.00,,,0.00,WUHU216HW,2013-03-21 10:00:00,
2013-03-21 04:05:00,50.2,40.9,29.72,SE,135,0.0,1.6,70,0.00,,,0.00,WUHU216HW,2013-03-21 10:05:00,
2013-03-21 04:10:00,49.7,40.3,29.71,SE,135,0.0,0.4,70,0.00,,,0.00,WUHU216HW,2013-03-21 10:10:00,
2013-03-21 04:15:00,49.1,40.2,29.71,SE,135,1.1,1.1,71,0.00,,,0.00,WUHU216HW,2013-03-21 10:15:00,
2013-03-21 04:20:00,48.8,40.2,29.71,SSE,158,0.2,1.1,72,0.00,,,0.00,WUHU216HW,2013-03-21 10:20:00,
2013-03-21 04:25:00,49.1,40.5,29.71,SE,135,0.0,2.7,72,0.00,,,0.00,WUHU216HW,2013-03-21 10:25:00,
2013-03-21 04:30:00,49.7,41.7,29.71,South,180,0.0,2.7,74,0.00,,,0.00,WUHU216HW,2013-03-21 10:30:00,
2013-03-21 04:35:00,49.7,41.1,29.71,SW,225,0.0,0.7,72,0.00,,,0.00,WUHU216HW,2013-03-21 10:35:00,
2013-03-21 04:40:00,49.7,41.1,29.70,SW,225,0.4,1.1,72,0.00,,,0.00,WUHU216HW,2013-03-21 10:40:00,
2013-03-21 04:45:00,49.7,41.1,29.70,SSW,203,1.8,1.8,72,0.00,,,0.00,WUHU216HW,2013-03-21 10:45:00,
2013-03-21 04:50:00,49.7,41.3,29.70,SSE,158,1.3,2.2,73,0.00,,,0.00,WUHU216HW,2013-03-21 10:50:00,
2013-03-21 04:55:00,49.7,41.1,29.70,SW,225,1.8,3.4,72,0.00,,,0.00,WUHU216HW,2013-03-21 10:55:00,
2013-03-21 05:00:00,49.9,41.2,29.70,SSW,203,0.9,3.4,72,0.00,,,0.00,WUHU216HW,2013-03-21 11:00:00,
2013-03-21 05:05:00,50.0,41.7,29.70,SSE,158,0.2,2.7,73,0.00,,,0.00,WUHU216HW,2013-03-21 11:05:00,
2013-03-21 05:10:00,50.2,41.6,29.70,SSE,158,0.0,2.0,72,0.00,,,0.00,WUHU216HW,2013-03-21 11:10:00,
2013-03-21 05:15:00,50.0,41.4,29.70,SE,135,1.3,1.3,72,0.00,,,0.00,WUHU216HW,2013-03-21 11:15:00,
2013-03-21 05:20:00,50.0,41.4,29.70,SE,135,0.0,1.3,72,0.00,,,0.00,WUHU216HW,2013-03-21 11:20:00,
2013-03-21 05:25:00,50.0,41.4,29.69,ESE,113,2.5,2.5,72,0.00,,,0.00,WUHU216HW,2013-03-21 11:25:00,
2013-03-21 05:30:00,50.6,42.0,29.69,SSE,158,1.6,2.5,72,0.00,,,0.00,WUHU216HW,2013-03-21 11:30:00,
2013-03-21 05:35:00,50.8,41.8,29.69,SSE,158,0.0,1.6,71,0.00,,,0.00,WUHU216HW,2013-03-21 11:35:00,
2013-03-21 05:40:00,50.2,41.2,29.69,SSE,158,1.1,1.1,71,0.00,,,0.00,WUHU216HW,2013-03-21 11:40:00,
2013-03-21 05:45:00,50.4,41.4,29.68,ESE,113,0.7,1.8,71,0.00,,,0.00,WUHU216HW,2013-03-21 11:45:00,
2013-03-21 05:50:00,50.8,41.8,29.69,SE,135,1.3,1.8,71,0.00,,,0.00,WUHU216HW,2013-03-21 11:50:00,
2013-03-21 05:55:00,51.1,41.8,29.69,SE,135,0.2,1.8,70,0.00,,,0.00,WUHU216HW,2013-03-21 11:55:00,
2013-03-21 06:00:00,51.1,41.8,29.69,SE,135,2.7,2.7,70,0.00,,,0.00,WUHU216HW,2013-03-21 12:00:00,
2013-03-21 06:05:00,51.5,41.7,29.69,SE,135,0.9,2.7,69,0.00,,,0.00,WUHU216HW,2013-03-21 12:05:00,
2013-03-21 06:10:00,51.7,41.9,29.68,SE,135,0.4,2.5,69,0.00,,,0.00,WUHU216HW,2013-03-21 12:10:00,
2013-03-21 06:15:00,51.8,41.7,29.68,SSE,158,1.8,2.7,68,0.00,,,0.00,WUHU216HW,2013-03-21 12:15:00,
2013-03-21 06:20:00,51.8,41.7,29.68,South,180,1.8,3.1,68,0.00,,,0.00,WUHU216HW,2013-03-21 12:20:00,
2013-03-21 06:25:00,51.7,41.5,29.68,SE,135,1.3,3.1,68,0.00,,,0.00,WUHU216HW,2013-03-21 12:25:00,
2013-03-21 06:30:00,51.7,41.9,29.68,SSE,158,0.9,2.0,69,0.00,,,0.00,WUHU216HW,2013-03-21 12:30:00,
2013-03-21 06:35:00,51.7,41.9,29.68,SSE,158,3.4,3.4,69,0.00,,,0.00,WUHU216HW,2013-03-21 12:35:00,
2013-03-21 06:40:00,52.0,43.0,29.68,SSE,158,0.9,3.4,71,0.00,,,0.00,WUHU216HW,2013-03-21 12:40:00,
2013-03-21 06:45:00,52.2,43.5,29.68,ESE,113,4.7,4.7,72,0.00,,,0.00,WUHU216HW,2013-03-21 12:45:00,
2013-03-21 06:50:00,52.9,44.2,29.68,SW,225,0.7,6.9,72,0.00,,,0.00,WUHU216HW,2013-03-21 12:50:00,
2013-03-21 06:55:00,53.3,44.5,29.68,SW,225,1.8,6.9,72,0.00,,,0.00,WUHU216HW,2013-03-21 12:55:00,
2013-03-21 07:00:00,54.4,45.9,29.68,WSW,248,2.7,6.3,73,0.00,,,0.00,WUHU216HW,2013-03-21 13:00:00,
2013-03-21 07:05:00,56.0,47.1,29.68,SW,225,4.7,6.3,72,0.00,,,0.00,WUHU216HW,2013-03-21 13:05:00,
2013-03-21 07:10:00,57.6,48.2,29.68,SSW,203,3.1,5.6,71,0.00,,,0.00,WUHU216HW,2013-03-21 13:10:00,
2013-03-21 07:15:00,59.4,49.2,29.68,SW,225,3.8,5.1,69,0.00,,,0.00,WUHU216HW,2013-03-21 13:15:00,
2013-03-21 07:20:00,60.7,49.3,29.68,SSW,203,5.4,6.7,66,0.00,,,0.00,WUHU216HW,2013-03-21 13:20:00,
2013-03-21 07:25:00,61.7,50.3,29.68,WSW,248,5.1,8.9,66,0.00,,,0.00,WUHU216HW,2013-03-21 13:25:00,
2013-03-21 07:30:00,62.8,50.9,29.68,SW,225,2.5,8.9,65,0.00,,,0.00,WUHU216HW,2013-03-21 13:30:00,
2013-03-21 07:35:00,63.9,51.5,29.68,WSW,248,5.4,5.4,64,0.00,,,0.00,WUHU216HW,2013-03-21 13:35:00,
2013-03-21 07:40:00,64.6,51.7,29.68,SSE,158,3.4,5.4,63,0.00,,,0.00,WUHU216HW,2013-03-21 13:40:00,
2013-03-21 07:45:00,66.1,52.7,29.68,SSW,203,6.3,7.4,62,0.00,,,0.00,WUHU216HW,2013-03-21 13:45:00,
2013-03-21 07:50:00,66.6,51.8,29.68,SW,225,10.3,10.3,59,0.00,,,0.00,WUHU216HW,2013-03-21 13:50:00,
2013-03-21 07:55:00,65.9,51.7,29.68,WSW,248,5.8,10.3,60,0.00,,,0.00,WUHU216HW,2013-03-21 13:55:00,
2013-03-21 08:00:00,66.1,51.8,29.68,SSW,203,6.9,9.8,60,0.00,,,0.00,WUHU216HW,2013-03-21 14:00:00,
2013-03-21 08:05:00,67.0,52.7,29.68,SW,225,6.9,9.8,60,0.00,,,0.00,WUHU216HW,2013-03-21 14:05:00,
2013-03-21 08:10:00,67.7,52.8,29.68,SSW,203,4.5,8.5,59,0.00,,,0.00,WUHU216HW,2013-03-21 14:10:00,
2013-03-21 08:15:00,68.8,52.9,29.68,South,180,4.0,6.0,57,0.00,,,0.00,WUHU216HW,2013-03-21 14:15:00,
2013-03-21 08:20:00,69.7,52.3,29.68,SW,225,6.3,9.6,54,0.00,,,0.00,WUHU216HW,2013-03-21 14:20:00,
2013-03-21 08:25:00,69.8,52.9,29.67,SSE,158,7.6,9.6,55,0.00,,,0.00,WUHU216HW,2013-03-21 14:25:00,
2013-03-21 08:30:00,70.0,53.1,29.67,SSE,158,4.7,9.8,55,0.00,,,0.00,WUHU216HW,2013-03-21 14:30:00,
2013-03-21 08:35:00,71.6,54.0,29.67,SSE,158,8.7,9.8,54,0.00,,,0.00,WUHU216HW,2013-03-21 14:35:00,
2013-03-21 08:40:00,70.9,52.4,29.66,South,180,4.0,9.6,52,0.00,,,0.00,WUHU216HW,2013-03-21 14:40:00,
2013-03-21 08:45:00,71.5,53.4,29.67,South,180,6.3,9.8,53,0.00,,,0.00,WUHU216HW,2013-03-21 14:45:00,
2013-03-21 08:50:00,70.9,52.9,29.67,SSE,158,6.9,9.8,53,0.00,,,0.00,WUHU216HW,2013-03-21 14:50:00,
2013-03-21 08:55:00,69.5,52.1,29.67,SSW,203,3.4,18.1,54,0.00,,,0.00,WUHU216HW,2013-03-21 14:55:00,
2013-03-21 09:00:00,69.5,52.6,29.68,WSW,248,10.5,18.1,55,0.00,,,0.00,WUHU216HW,2013-03-21 15:00:00,
2013-03-21 09:05:00,68.6,52.2,29.67,SSE,158,6.3,15.7,56,0.00,,,0.00,WUHU216HW,2013-03-21 15:05:00,
2013-03-21 09:10:00,67.7,52.4,29.67,SSW,203,7.6,15.7,58,0.00,,,0.00,WUHU216HW,2013-03-21 15:10:00,
2013-03-21 09:15:00,66.8,52.5,29.67,WSW,248,4.0,10.5,60,0.00,,,0.00,WUHU216HW,2013-03-21 15:15:00,
2013-03-21 09:20:00,67.1,52.8,29.66,SW,225,6.7,17.4,60,0.00,,,0.00,WUHU216HW,2013-03-21 15:20:00,
2013-03-21 09:25:00,68.4,53.0,29.66,SSW,203,8.3,17.4,58,0.00,,,0.00,WUHU216HW,2013-03-21 15:25:00,
2013-03-21 09:30:00,68.0,52.7,29.66,WSW,248,11.4,13.9,58,0.00,,,0.00,WUHU216HW,2013-03-21 15:30:00,
2013-03-21 09:35:00,67.5,52.7,29.66,SSE,158,10.7,11.4,59,0.00,,,0.00,WUHU216HW,2013-03-21 15:35:00,
2013-03-21 09:40:00,65.7,52.3,29.66,SSE,158,7.6,11.9,62,0.00,,,0.00,WUHU216HW,2013-03-21 15:40:00,
2013-03-21 09:45:00,64.8,52.3,29.66,South,180,6.9,11.9,64,0.00,,,0.00,WUHU216HW,2013-03-21 15:45:00,
2013-03-21 09:50:00,64.4,52.4,29.65,SSW,203,7.6,8.3,65,0.00,,,0.00,WUHU216HW,2013-03-21 15:50:00,
2013-03-21 09:55:00,64.3,52.7,29.65,SSE,158,5.4,7.6,66,0.00,,,0.00,WUHU216HW,2013-03-21 15:55:00,
2013-03-21 10:00:00,64.1,52.9,29.66,South,180,7.2,12.8,67,0.00,,,0.00,WUHU216HW,2013-03-21 16:00:00,
2013-03-21 10:05:00,63.9,52.8,29.65,SSW,203,2.5,12.8,67,0.00,,,0.00,WUHU216HW,2013-03-21 16:05:00,
2013-03-21 10:10:00,63.9,52.8,29.65,SW,225,5.1,10.5,67,0.00,,,0.00,WUHU216HW,2013-03-21 16:10:00,
2013-03-21 10:15:00,64.1,52.9,29.65,SE,135,5.4,9.6,67,0.00,,,0.00,WUHU216HW,2013-03-21 16:15:00,
2013-03-21 10:20:00,64.4,53.3,29.65,South,180,8.5,8.7,67,0.00,,,0.00,WUHU216HW,2013-03-21 16:20:00,
2013-03-21 10:25:00,64.6,53.4,29.65,SSW,203,5.1,12.1,67,0.00,,,0.00,WUHU216HW,2013-03-21 16:25:00,
2013-03-21 10:30:00,65.2,53.5,29.64,SSE,158,5.4,12.1,66,0.00,,,0.00,WUHU216HW,2013-03-21 16:30:00,
2013-03-21 10:35:00,66.4,54.3,29.63,SSE,158,4.9,13.4,65,0.00,,,0.00,WUHU216HW,2013-03-21 16:35:00,
2013-03-21 10:40:00,67.0,53.6,29.64,South,180,6.9,13.4,62,0.00,,,0.00,WUHU216HW,2013-03-21 16:40:00,
2013-03-21 10:45:00,67.3,54.3,29.63,SSE,158,3.6,11.2,63,0.00,,,0.00,WUHU216HW,2013-03-21 16:45:00,
2013-03-21 10:50:00,67.5,54.0,29.63,SE,135,6.3,10.1,62,0.00,,,0.00,WUHU216HW,2013-03-21 16:50:00,
2013-03-21 10:55:00,67.5,54.0,29.63,South,180,11.4,11.4,62,0.00,,,0.00,WUHU216HW,2013-03-21 16:55:00,
2013-03-21 11:00:00,67.3,53.8,29.63,SSW,203,9.6,11.4,62,0.00,,,0.00,WUHU216HW,2013-03-21 17:00:00,
2013-03-21 11:05:00,67.9,54.4,29.62,SW,225,4.5,11.4,62,0.00,,,0.00,WUHU216HW,2013-03-21 17:05:00,
2013-03-21 11:10:00,68.6,54.2,29.63,West,270,7.2,11.4,60,0.00,,,0.00,WUHU216HW,2013-03-21 17:10:00,
2013-03-21 11:15:00,68.0,54.1,29.62,SW,225,4.7,12.8,61,0.00,,,0.00,WUHU216HW,2013-03-21 17:15:00,
2013-03-21 11:20:00,68.2,54.3,29.61,SE,135,11.9,12.8,61,0.00,,,0.00,WUHU216HW,2013-03-21 17:20:00,
2013-03-21 11:25:00,69.3,55.4,29.61,SSE,158,3.4,11.9,61,0.00,,,0.00,WUHU216HW,2013-03-21 17:25:00,
2013-03-21 11:30:00,70.4,54.9,29.60,WSW,248,12.8,12.8,58,0.00,,,0.00,WUHU216HW,2013-03-21 17:30:00,
2013-03-21 11:35:00,71.8,55.7,29.60,SE,135,6.7,12.8,57,0.00,,,0.00,WUHU216HW,2013-03-21 17:35:00,
2013-03-21 11:40:00,73.1,56.3,29.59,SW,225,7.4,8.5,56,0.00,,,0.00,WUHU216HW,2013-03-21 17:40:00,
2013-03-21 11:45:00,75.2,57.0,29.59,East,90,3.6,7.6,53,0.00,,,0.00,WUHU216HW,2013-03-21 17:45:00,
2013-03-21 11:50:00,75.1,55.8,29.59,SSE,158,9.6,11.4,51,0.00,,,0.00,WUHU216HW,2013-03-21 17:50:00,
2013-03-21 11:55:00,73.3,55.5,29.58,South,180,10.7,11.4,54,0.00,,,0.00,WUHU216HW,2013-03-21 17:55:00,
2013-03-21 12:00:00,73.3,55.0,29.58,SSE,158,10.3,12.3,53,0.00,,,0.00,WUHU216HW,2013-03-21 18:00:00,
2013-03-21 12:05:00,72.4,55.2,29.58,SSW,203,11.4,12.3,55,0.00,,,0.00,WUHU216HW,2013-03-21 18:05:00,
2013-03-21 12:10:00,72.4,55.2,29.58,SSE,158,13.4,13.4,55,0.00,,,0.00,WUHU216HW,2013-03-21 18:10:00,
2013-03-21 12:15:00,72.5,55.4,29.58,SSE,158,4.0,13.4,55,0.00,,,0.00,WUHU216HW,2013-03-21 18:15:00,
2013-03-21 12:20:00,72.7,55.0,29.57,SSW,203,4.7,12.8,54,0.00,,,0.00,WUHU216HW,2013-03-21 18:20:00,
2013-03-21 12:25:00,72.2,54.6,29.57,SSW,203,5.1,10.7,54,0.00,,,0.00,WUHU216HW,2013-03-21 18:25:00,
2013-03-21 12:31:00,71.8,54.7,29.57,ESE,113,6.9,11.4,55,0.00,,,0.00,WUHU216HW,2013-03-21 18:31:00,
2013-03-21 12:36:00,71.6,55.1,29.56,SW,225,4.3,11.4,56,0.00,,,0.00,WUHU216HW,2013-03-21 18:36:00,
2013-03-21 12:40:00,71.5,54.9,29.56,SE,135,7.6,9.2,56,0.00,,,0.00,WUHU216HW,2013-03-21 18:40:00,
2013-03-21 12:46:00,70.6,54.5,29.55,SSW,203,6.7,12.3,57,0.00,,,0.00,WUHU216HW,2013-03-21 18:46:00,
2013-03-21 12:50:00,70.4,54.5,29.55,SE,135,11.4,12.3,57,0.00,,,0.00,WUHU216HW,2013-03-21 18:50:00,
2013-03-21 12:56:00,70.4,54.5,29.55,SSE,158,6.3,11.4,57,0.00,,,0.00,WUHU216HW,2013-03-21 18:56:00,
2013-03-21 13:01:00,70.4,54.5,29.55,SSE,158,6.7,14.3,57,0.00,,,0.00,WUHU216HW,2013-03-21 19:01:00,
2013-03-21 13:06:00,70.2,54.3,29.54,SSW,203,12.8,14.3,57,0.00,,,0.00,WUHU216HW,2013-03-21 19:06:00,
2013-03-21 13:11:00,70.4,54.9,29.54,South,180,6.3,13.0,58,0.00,,,0.00,WUHU216HW,2013-03-21 19:11:00,
2013-03-21 13:16:00,70.4,54.9,29.53,SSE,158,12.3,12.3,58,0.00,,,0.00,WUHU216HW,2013-03-21 19:16:00,
2013-03-21 13:21:00,71.1,56.1,29.53,South,180,7.2,12.3,59,0.00,,,0.00,WUHU216HW,2013-03-21 19:21:00,
2013-03-21 13:26:00,72.0,56.3,29.52,SSW,203,6.0,9.4,58,0.00,,,0.00,WUHU216HW,2013-03-21 19:26:00,
2013-03-21 13:31:00,72.7,56.0,29.52,South,180,10.3,10.3,56,0.00,,,0.00,WUHU216HW,2013-03-21 19:31:00,
2013-03-21 13:36:00,73.1,55.8,29.52,WSW,248,9.2,10.3,55,0.00,,,0.00,WUHU216HW,2013-03-21 19:36:00,
2013-03-21 13:41:00,73.3,55.5,29.52,SSE,158,10.5,13.4,54,0.00,,,0.00,WUHU216HW,2013-03-21 19:41:00,
2013-03-21 13:46:00,73.3,55.5,29.51,SSW,203,2.2,13.4,54,0.00,,,0.00,WUHU216HW,2013-03-21 19:46:00,
2013-03-21 13:51:00,74.3,56.1,29.51,WSW,248,9.2,12.5,53,0.00,,,0.00,WUHU216HW,2013-03-21 19:51:00,
2013-03-21 13:56:00,74.5,56.3,29.50,SSE,158,3.4,9.6,53,0.00,,,0.00,WUHU216HW,2013-03-21 19:56:00,
2013-03-21 14:01:00,74.9,55.6,29.50,SSW,203,5.4,13.2,51,0.00,,,0.00,WUHU216HW,2013-03-21 20:01:00,
2013-03-21 14:06:00,75.2,56.0,29.49,SSW,203,4.5,13.2,51,0.00,,,0.00,WUHU216HW,2013-03-21 20:06:00,
2013-03-21 14:11:00,75.4,56.1,29.49,SSW,203,5.1,8.5,51,0.00,,,0.00,WUHU216HW,2013-03-21 20:11:00,
2013-03-21 14:16:00,75.6,56.3,29.49,SW,225,7.6,8.5,51,0.00,,,0.00,WUHU216HW,2013-03-21 20:16:00,
2013-03-21 14:21:00,76.0,56.1,29.48,SSW,203,3.8,10.5,50,0.00,,,0.00,WUHU216HW,2013-03-21 20:21:00,
2013-03-21 14:26:00,76.0,55.4,29.48,SW,225,6.3,10.5,49,0.00,,,0.00,WUHU216HW,2013-03-21 20:26:00,
2013-03-21 14:31:00,76.3,55.8,29.48,SSW,203,2.0,10.5,49,0.00,,,0.00,WUHU216HW,2013-03-21 20:31:00,
2013-03-21 14:36:00,76.9,56.3,29.47,SSW,203,9.8,10.5,49,0.00,,,0.00,WUHU216HW,2013-03-21 20:36:00,
2013-03-21 14:41:00,77.4,56.8,29.47,SSW,203,9.2,9.8,49,0.00,,,0.00,WUHU216HW,2013-03-21 20:41:00,
2013-03-21 14:46:00,77.0,56.4,29.47,SSW,203,4.9,10.5,49,0.00,,,0.00,WUHU216HW,2013-03-21 20:46:00,
2013-03-21 14:52:00,76.1,55.6,29.47,WSW,248,11.6,11.6,49,0.00,,,0.00,WUHU216HW,2013-03-21 20:52:00,
2013-03-21 14:57:00,74.9,55.6,29.47,WSW,248,11.2,14.3,51,0.00,,,0.00,WUHU216HW,2013-03-21 20:57:00,
2013-03-21 15:02:00,74.5,55.7,29.46,SW,225,4.7,13.6,52,0.00,,,0.00,WUHU216HW,2013-03-21 21:02:00,
2013-03-21 15:07:00,74.7,55.9,29.46,SSE,158,10.3,13.6,52,0.00,,,0.00,WUHU216HW,2013-03-21 21:07:00,
2013-03-21 15:12:00,75.2,56.4,29.46,South,180,5.1,12.8,52,0.00,,,0.00,WUHU216HW,2013-03-21 21:12:00,
2013-03-21 15:17:00,75.2,56.4,29.46,SSE,158,5.1,13.2,52,0.00,,,0.00,WUHU216HW,2013-03-21 21:17:00,
2013-03-21 15:22:00,74.9,56.1,29.45,South,180,8.7,13.2,52,0.00,,,0.00,WUHU216HW,2013-03-21 21:22:00,
2013-03-21 15:27:00,74.5,56.3,29.45,SW,225,3.4,8.7,53,0.00,,,0.00,WUHU216HW,2013-03-21 21:27:00,
2013-03-21 15:32:00,74.2,55.9,29.45,SW,225,6.0,12.8,53,0.00,,,0.00,WUHU216HW,2013-03-21 21:32:00,
2013-03-21 15:37:00,73.8,56.5,29.45,SE,135,5.6,12.8,55,0.00,,,0.00,WUHU216HW,2013-03-21 21:37:00,
2013-03-21 15:42:00,73.6,56.3,29.45,SSW,203,5.6,9.2,55,0.00,,,0.00,WUHU216HW,2013-03-21 21:42:00,
2013-03-21 15:47:00,73.8,57.1,29.45,South,180,5.4,14.5,56,0.00,,,0.00,WUHU216HW,2013-03-21 21:47:00,
2013-03-21 15:52:00,74.3,56.5,29.45,SSE,158,7.2,14.5,54,0.00,,,0.00,WUHU216HW,2013-03-21 21:52:00,
2013-03-21 15:57:00,74.5,57.2,29.45,WSW,248,13.0,13.0,55,0.00,,,0.00,WUHU216HW,2013-03-21 21:57:00,
2013-03-21 16:02:00,74.0,56.2,29.45,SSW,203,9.4,13.0,54,0.00,,,0.00,WUHU216HW,2013-03-21 22:02:00,
2013-03-21 16:07:00,73.4,56.7,29.44,SSE,158,6.3,10.1,56,0.00,,,0.00,WUHU216HW,2013-03-21 22:07:00,
2013-03-21 16:12:00,73.3,56.5,29.43,SE,135,7.2,14.1,56,0.00,,,0.00,WUHU216HW,2013-03-21 22:12:00,
2013-03-21 16:17:00,73.3,56.5,29.43,South,180,5.6,14.1,56,0.00,,,0.00,WUHU216HW,2013-03-21 22:17:00,
2013-03-21 16:22:00,73.1,56.3,29.42,South,180,3.6,10.3,56,0.00,,,0.00,WUHU216HW,2013-03-21 22:22:00,
2013-03-21 16:27:00,73.1,56.9,29.42,SSE,158,3.4,10.3,57,0.00,,,0.00,WUHU216HW,2013-03-21 22:27:00,
2013-03-21 16:32:00,73.1,56.9,29.42,SW,225,10.5,10.5,57,0.00,,,0.00,WUHU216HW,2013-03-21 22:32:00,
2013-03-21 16:37:00,73.8,56.5,29.42,SE,135,9.2,10.5,55,0.00,,,0.00,WUHU216HW,2013-03-21 22:37:00,
2013-03-21 16:42:00,73.4,56.7,29.42,South,180,3.4,9.2,56,0.00,,,0.00,WUHU216HW,2013-03-21 22:42:00,
2013-03-21 16:47:00,73.1,56.3,29.42,SSW,203,5.8,11.9,56,0.00,,,0.00,WUHU216HW,2013-03-21 22:47:00,
2013-03-21 16:52:00,72.7,56.5,29.41,SW,225,6.7,11.9,57,0.00,,,0.00,WUHU216HW,2013-03-21 22:52:00,
2013-03-21 16:57:00,73.1,56.9,29.42,SW,225,11.4,11.9,57,0.00,,,0.00,WUHU216HW,2013-03-21 22:57:00,
2013-03-21 17:02:00,73.3,56.5,29.41,West,270,11.2,11.9,56,0.00,,,0.00,WUHU216HW,2013-03-21 23:02:00,
2013-03-21 17:07:00,72.9,56.7,29.42,SW,225,6.5,11.2,57,0.00,,,0.00,WUHU216HW,2013-03-21 23:07:00,
2013-03-21 17:12:00,72.5,56.3,29.42,WSW,248,10.7,13.6,57,0.00,,,0.00,WUHU216HW,2013-03-21 23:12:00,
2013-03-21 17:17:00,72.5,56.9,29.42,WSW,248,11.4,13.6,58,0.00,,,0.00,WUHU216HW,2013-03-21 23:17:00,
2013-03-21 17:22:00,72.7,56.5,29.42,SSW,203,6.9,11.4,57,0.00,,,0.00,WUHU216HW,2013-03-21 23:22:00,
2013-03-21 17:27:00,72.7,56.5,29.42,SW,225,3.4,9.2,57,0.00,,,0.00,WUHU216HW,2013-03-21 23:27:00,
2013-03-21 17:32:00,72.5,56.9,29.42,WSW,248,5.1,7.6,58,0.00,,,0.00,WUHU216HW,2013-03-21 23:32:00,
2013-03-21 17:37:00,72.4,56.7,29.42,WSW,248,8.3,8.3,58,0.00,,,0.00,WUHU216HW,2013-03-21 23:37:00,
2013-03-21 17:42:00,72.2,56.5,29.42,SW,225,10.3,11.4,58,0.00,,,0.00,WUHU216HW,2013-03-21 23:42:00,
2013-03-21 17:47:00,72.0,56.3,29.42,SW,225,12.1,12.1,58,0.00,,,0.00,WUHU216HW,2013-03-21 23:47:00,
2013-03-21 17:52:00,72.0,56.9,29.42,SW,225,7.4,13.6,59,0.00,,,0.00,WUHU216HW,2013-03-21 23:52:00,
2013-03-21 17:57:00,71.8,56.7,29.42,SW,225,6.3,13.6,59,0.00,,,0.00,WUHU216HW,2013-03-21 23:57:00,
2013-03-21 18:02:00,71.5,56.4,29.42,SW,225,10.5,13.6,59,0.00,,,0.00,WUHU216HW,2013-03-22 00:02:00,
2013-03-21 18:07:00,71.3,56.7,29.43,SW,225,9.2,13.6,60,0.00,,,0.00,WUHU216HW,2013-03-22 00:07:00,
2013-03-21 18:12:00,71.1,56.6,29.43,SW,225,5.8,12.1,60,0.00,,,0.00,WUHU216HW,2013-03-22 00:12:00,
2013-03-21 18:17:00,70.9,55.9,29.43,WSW,248,5.8,9.2,59,0.00,,,0.00,WUHU216HW,2013-03-22 00:17:00,
2013-03-21 18:22:00,70.7,56.3,29.43,SW,225,8.9,8.9,60,0.00,,,0.00,WUHU216HW,2013-03-22 00:22:00,
2013-03-21 18:27:00,70.6,56.1,29.43,SSW,203,6.7,8.9,60,0.00,,,0.00,WUHU216HW,2013-03-22 00:27:00,
2013-03-21 18:32:00,70.4,55.9,29.43,WSW,248,5.4,7.6,60,0.00,,,0.00,WUHU216HW,2013-03-22 00:32:00,
2013-03-21 18:37:00,70.2,56.2,29.43,WSW,248,2.5,7.6,61,0.00,,,0.00,WUHU216HW,2013-03-22 00:37:00,
2013-03-21 18:42:00,69.8,55.9,29.43,SSW,203,5.4,5.4,61,0.00,,,0.00,WUHU216HW,2013-03-22 00:42:00,
2013-03-21 18:47:00,69.5,55.5,29.43,SW,225,1.8,6.3,61,0.00,,,0.00,WUHU216HW,2013-03-22 00:47:00,
2013-03-21 18:52:00,69.3,55.7,29.43,SW,225,2.0,6.3,62,0.00,,,0.00,WUHU216HW,2013-03-22 00:52:00,
2013-03-21 18:57:00,68.9,55.8,29.43,SW,225,3.6,4.0,63,0.00,,,0.00,WUHU216HW,2013-03-22 00:57:00,
2013-03-21 19:02:00,68.8,55.6,29.44,SSW,203,3.6,3.6,63,0.00,,,0.00,WUHU216HW,2013-03-22 01:02:00,
2013-03-21 19:07:00,68.6,55.9,29.44,SW,225,2.2,5.4,64,0.00,,,0.00,WUHU216HW,2013-03-22 01:07:00,
2013-03-21 19:12:00,68.4,55.7,29.44,SW,225,1.8,5.4,64,0.00,,,0.00,WUHU216HW,2013-03-22 01:12:00,
2013-03-21 19:17:00,68.0,55.8,29.44,SE,135,5.8,5.8,65,0.00,,,0.00,WUHU216HW,2013-03-22 01:17:00,
2013-03-21 19:22:00,68.0,55.8,29.44,SSW,203,0.9,5.8,65,0.00,,,0.00,WUHU216HW,2013-03-22 01:22:00,
2013-03-21 19:27:00,67.9,55.6,29.44,West,270,0.9,2.5,65,0.00,,,0.00,WUHU216HW,2013-03-22 01:27:00,
2013-03-21 19:32:00,67.5,55.3,29.44,SSW,203,2.0,4.3,65,0.00,,,0.00,WUHU216HW,2013-03-22 01:32:00,
2013-03-21 19:37:00,67.5,55.3,29.44,SSE,158,0.7,4.3,65,0.00,,,0.00,WUHU216HW,2013-03-22 01:37:00,
2013-03-21 19:42:00,67.3,55.1,29.44,SSE,158,0.0,1.8,65,0.00,,,0.00,WUHU216HW,2013-03-22 01:42:00,
2013-03-21 19:47:00,67.3,56.0,29.45,WSW,248,2.5,2.9,67,0.00,,,0.00,WUHU216HW,2013-03-22 01:47:00,
2013-03-21 19:52:00,67.3,56.4,29.44,SSE,158,1.1,3.4,68,0.00,,,0.00,WUHU216HW,2013-03-22 01:52:00,
2013-03-21 19:57:00,67.3,56.0,29.44,SE,135,1.8,3.4,67,0.00,,,0.00,WUHU216HW,2013-03-22 01:57:00,
2013-03-21 20:02:00,67.3,56.0,29.44,SSE,158,2.2,3.1,67,0.00,,,0.00,WUHU216HW,2013-03-22 02:02:00,
2013-03-21 20:07:00,67.1,56.3,29.45,SW,225,2.5,3.1,68,0.00,,,0.00,WUHU216HW,2013-03-22 02:07:00,
2013-03-21 20:12:00,67.3,56.4,29.44,South,180,3.4,3.6,68,0.00,,,0.00,WUHU216HW,2013-03-22 02:12:00,
2013-03-21 20:17:00,67.0,56.4,29.44,SSE,158,3.6,4.0,69,0.00,,,0.00,WUHU216HW,2013-03-22 02:17:00,
2013-03-21 20:22:00,67.0,56.4,29.45,South,180,2.7,4.0,69,0.00,,,0.00,WUHU216HW,2013-03-22 02:22:00,
2013-03-21 20:27:00,67.0,56.9,29.45,South,180,5.8,5.8,70,0.00,,,0.00,WUHU216HW,2013-03-22 02:27:00,
2013-03-21 20:32:00,67.0,56.9,29.44,WSW,248,3.1,5.8,70,0.00,,,0.00,WUHU216HW,2013-03-22 02:32:00,
2013-03-21 20:37:00,67.0,56.9,29.44,SSE,158,6.0,6.0,70,0.00,,,0.00,WUHU216HW,2013-03-22 02:37:00,
2013-03-21 20:43:00,66.8,57.1,29.44,SE,135,2.5,6.5,71,0.00,,,0.00,WUHU216HW,2013-03-22 02:43:00,
2013-03-21 20:48:00,67.0,56.9,29.44,SE,135,2.7,6.5,70,0.00,,,0.00,WUHU216HW,2013-03-22 02:48:00,
2013-03-21 20:53:00,67.0,57.2,29.44,ESE,113,6.3,6.7,71,0.00,,,0.00,WUHU216HW,2013-03-22 02:53:00,
2013-03-21 20:58:00,66.8,57.1,29.45,SSW,203,8.1,8.5,71,0.00,,,0.00,WUHU216HW,2013-03-22 02:58:00,
2013-03-21 21:03:00,66.6,57.2,29.45,SSE,158,9.2,9.2,72,0.00,,,0.00,WUHU216HW,2013-03-22 03:03:00,
2013-03-21 21:08:00,66.6,57.7,29.45,SSE,158,8.9,9.2,73,0.00,,,0.00,WUHU216HW,2013-03-22 03:08:00,
2013-03-21 21:13:00,66.2,57.3,29.45,SSE,158,3.4,8.9,73,0.00,,,0.00,WUHU216HW,2013-03-22 03:13:00,
2013-03-21 21:18:00,66.1,57.5,29.45,South,180,5.1,7.2,74,0.00,,,0.00,WUHU216HW,2013-03-22 03:18:00,
2013-03-21 21:23:00,66.1,57.5,29.46,SSE,158,3.4,8.5,74,0.00,,,0.00,WUHU216HW,2013-03-22 03:23:00,
2013-03-21 21:28:00,65.7,57.2,29.46,South,180,2.2,8.5,74,0.00,,,0.00,WUHU216HW,2013-03-22 03:28:00,
2013-03-21 21:33:00,65.5,57.3,29.47,SSE,158,5.4,7.6,75,0.00,,,0.00,WUHU216HW,2013-03-22 03:33:00,
2013-03-21 21:38:00,65.5,57.3,29.47,SSE,158,3.4,6.3,75,0.00,,,0.00,WUHU216HW,2013-03-22 03:38:00,
2013-03-21 21:43:00,65.3,57.6,29.47,South,180,6.0,6.0,76,0.00,,,0.00,WUHU216HW,2013-03-22 03:43:00,
2013-03-21 21:48:00,65.2,57.4,29.46,SSW,203,2.5,7.2,76,0.00,,,0.00,WUHU216HW,2013-03-22 03:48:00,
2013-03-21 21:53:00,65.0,57.6,29.46,SE,135,5.4,7.2,77,0.00,,,0.00,WUHU216HW,2013-03-22 03:53:00,
2013-03-21 21:58:00,64.8,57.4,29.46,SSE,158,3.4,9.4,77,0.00,,,0.00,WUHU216HW,2013-03-22 03:58:00,
2013-03-21 22:00:00,64.8,57.4,29.46,South,180,3.4,9.4,77,0.00,,,0.00,WUHU216HW,2013-03-22 04:00:00,
2013-03-21 22:05:00,64.6,57.6,29.46,SSW,203,4.7,8.5,78,0.00,,,0.00,WUHU216HW,2013-03-22 04:05:00,
2013-03-21 22:10:00,64.4,57.4,29.46,SSE,158,5.4,8.5,78,0.00,,,0.00,WUHU216HW,2013-03-22 04:10:00,
2013-03-21 22:15:00,64.3,57.2,29.46,WSW,248,4.3,6.0,78,0.00,,,0.00,WUHU216HW,2013-03-22 04:15:00,
2013-03-21 22:20:00,64.1,57.4,29.46,WNW,293,6.0,8.5,79,0.00,,,0.00,WUHU216HW,2013-03-22 04:20:00,
2013-03-21 22:25:00,64.1,57.4,29.46,South,180,7.6,8.5,79,0.00,,,0.00,WUHU216HW,2013-03-22 04:25:00,
2013-03-21 22:30:00,64.1,57.4,29.46,South,180,5.4,7.6,79,0.00,,,0.00,WUHU216HW,2013-03-22 04:30:00,
2013-03-21 22:35:00,63.9,57.2,29.46,SSW,203,4.5,5.6,79,0.00,,,0.00,WUHU216HW,2013-03-22 04:35:00,
2013-03-21 22:40:00,63.9,57.6,29.46,SSE,158,6.5,6.5,80,0.00,,,0.00,WUHU216HW,2013-03-22 04:40:00,
2013-03-21 22:45:00,63.7,57.4,29.45,SSE,158,4.3,7.2,80,0.00,,,0.00,WUHU216HW,2013-03-22 04:45:00,
2013-03-21 22:50:00,63.7,57.1,29.46,South,180,4.5,7.2,79,0.00,,,0.00,WUHU216HW,2013-03-22 04:50:00,
2013-03-21 22:55:00,63.7,57.1,29.45,SSW,203,1.6,6.5,79,0.00,,,0.00,WUHU216HW,2013-03-22 04:55:00,
2013-03-21 23:00:00,63.7,57.4,29.45,SSE,158,4.7,10.5,80,0.00,,,0.00,WUHU216HW,2013-03-22 05:00:00,
2013-03-21 23:05:00,63.9,58.0,29.45,SSE,158,5.4,10.5,81,0.00,,,0.00,WUHU216HW,2013-03-22 05:05:00,
2013-03-21 23:10:00,63.9,57.6,29.45,SSE,158,5.1,7.2,80,0.00,,,0.00,WUHU216HW,2013-03-22 05:10:00,
2013-03-21 23:15:00,64.1,57.8,29.45,SW,225,4.0,6.5,80,0.00,,,0.00,WUHU216HW,2013-03-22 05:15:00,
2013-03-21 23:20:00,64.1,57.8,29.45,SW,225,4.9,5.4,80,0.00,,,0.00,WUHU216HW,2013-03-22 05:20:00,
2013-03-21 23:25:00,64.1,58.2,29.45,WSW,248,6.7,6.7,81,0.00,,,0.00,WUHU216HW,2013-03-22 05:25:00,
2013-03-21 23:30:00,64.3,58.7,29.45,WSW,248,7.2,11.4,82,0.00,,,0.00,WUHU216HW,2013-03-22 05:30:00,
2013-03-21 23:35:00,64.4,58.5,29.45,SSE,158,5.8,11.4,81,0.00,,,0.00,WUHU216HW,2013-03-22 05:35:00,
2013-03-21 23:40:00,64.4,58.5,29.45,WSW,248,4.0,8.3,81,0.00,,,0.00,WUHU216HW,2013-03-22 05:40:00,
2013-03-21 23:45:00,64.4,58.5,29.45,WSW,248,6.3,8.3,81,0.00,,,0.00,WUHU216HW,2013-03-22 05:45:00,
2013-03-21 23:50:00,64.4,58.5,29.45,SSW,203,5.6,6.3,81,0.00,,,0.00,WUHU216HW,2013-03-22 05:50:00,
2013-03-21 23:55:00,64.4,58.5,29.45,West,270,4.3,6.3,81,0.00,,,0.00,WUHU216HW,2013-03-22 05:55:00,